Terug naar catalogus

STARLINK-36325

ActiefCommunicatieVLEO
NORAD 67861·PAYLOAD·🇺🇸 United States

Gelanceerd Feb 20, 2026 vanaf Vandenberg Space Force Base

Loading…

Volgende Passages (komende 24 uur)

TLE

VersSource: CelesTrak SupGP

Epoch: Sep 14, 2026, 21:21 UTC

1 67861C 26034M   26257.89006944  .00034103  00000+0  10080-2 0  2573
2 67861  53.1603  43.7765 0001088  75.8293  24.2826 15.34361647    16

Volg STARLINK-36325 in realtime met AllMySat

Download on the App Store